Wind_Speed
30 29 31 28 24 20 16 13 14 18 18 19 18 16 13 11 8 4 1 3 2 3 4 6 9 10 12 14 16 18 18 20 21 22 20 15 10 14 18 17 13 19 14
33 35 35 33 29 24 19 16 14 16 17 17 17 15 13 10 7 4 3 4 5 5 6 9 11 12 13 14 18 19 21 22 23 21 16 12 17 4 24 14 23 20 23
38 39 39 37 33 30 24 19 15 14 15 18 18 19 16 13 11 9 6 6 8 7 7 11 12 12 13 17 20 21 22 21 20 18 15 8 7 25 8 23 17 25 24
39 39 41 40 38 34 27 22 17 14 14 19 19 20 19 17 11 7 8 9 8 8 10 11 12 13 16 19 20 21 22 22 21 17 16 15 16 16 15 12 26 24 22
40 42 44 42 40 36 31 24 19 16 15 18 20 20 18 14 14 13 13 13 11 11 12 12 13 16 18 20 21 21 21 22 19 18 19 18 18 19 23 28 24 26 25
37 39 40 43 41 38 33 27 22 18 16 17 20 21 16 13 15 16 15 16 12 12 13 12 14 15 18 20 20 23 23 21 20 18 18 18 20 20 21 24 28 28 23
33 36 40 43 42 40 35 29 24 20 17 17 17 19 15 12 13 15 14 13 13 14 12 10 12 15 17 21 22 21 20 19 16 15 16 17 18 18 21 23 21 20 23
22 34 37 38 39 38 35 29 25 21 17 17 15 19 13 12 14 11 11 13 14 13 13 13 15 16 19 19 18 18 19 19 19 20 20 18 19 20 21 24 26 27 18
10 16 24 28 31 35 34 30 26 21 17 18 18 19 19 16 13 13 14 14 16 18 16 13 16 21 18 17 20 22 22 22 21 21 23 25 27 28 26 21 17 17 19
12 11 14 18 22 25 31 31 27 22 19 22 22 18 16 14 15 16 18 17 16 11 12 15 14 16 18 20 22 23 23 20 21 24 26 24 22 18 13 12 11 10 12
12 9 8 8 13 18 27 32 30 25 22 22 23 20 17 15 16 17 14 9 8 11 9 12 16 18 21 22 23 21 19 21 23 23 21 20 20 18 17 15 13 10 10
10 8 7 8 10 17 25 29 29 27 24 22 21 19 18 17 14 10 8 7 7 9 12 16 19 21 21 20 19 19 20 22 23 22 21 22 21 19 17 15 13 13 14
11 9 7 8 11 16 22 25 27 27 24 23 23 20 16 12 8 4 5 6 9 12 16 19 20 19 18 18 19 19 21 22 23 24 23 21 20 19 18 17 17 18 18
14 14 14 15 16 19 24 27 29 27 26 24 21 17 12 7 3 4 6 9 13 17 18 18 16 16 17 18 18 19 21 23 24 22 19 16 14 17 21 20 21 22 23
18 18 20 21 22 26 30 31 29 26 23 20 16 11 6 3 4 7 10 13 16 16 15 14 14 15 16 17 18 20 22 23 21 20 18 16 12 15 17 17 20 23 24
21 22 24 26 29 30 30 27 25 22 17 13 9 5 3 3 6 10 13 14 13 12 12 12 13 14 16 18 19 19 21 20 22 20 17 16 14 16 16 17 19 19 18
27 27 27 27 28 27 25 23 20 16 12 9 7 3 2 5 8 11 12 11 11 11 11 12 12 14 16 17 18 19 20 22 20 18 17 16 16 16 15 17 19 18 16
29 29 28 27 26 24 21 18 15 13 10 7 3 2 4 7 9 9 9 9 9 10 12 13 14 14 16 19 21 21 22 20 17 17 16 16 17 16 16 21 22 21 19
29 28 27 26 25 22 19 17 15 12 9 5 3 3 6 7 7 7 7 8 10 12 13 13 12 13 14 15 17 21 21 18 17 16 15 16 16 15 18 21 22 22 20
29 30 29 26 24 22 17 14 12 9 6 3 2 5 6 6 6 6 6 7 10 13 12 10 10 12 12 12 16 20 18 18 18 17 17 16 16 17 19 20 21 20 23
32 31 28 26 23 20 17 14 10 7 4 2 4 5 5 5 5 5 5 7 10 10 10 8 9 12 11 12 17 17 17 18 19 19 20 19 18 19 19 18 17 20 22
35 33 31 27 23 20 17 13 10 7 4 5 5 5 4 4 4 3 4 7 8 9 10 8 9 11 11 13 17 17 16 17 19 19 22 21 21 21 20 18 16 17 19
37 33 30 27 24 19 14 11 9 7 6 6 6 5 4 3 3 3 5 7 7 8 9 10 11 13 14 15 17 18 21 22 21 21 21 21 20 19 17 15 15 16 17
38 35 30 26 24 20 15 11 9 7 7 7 7 5 5 4 3 4 7 7 7 8 9 11 13 16 17 17 19 22 23 23 23 21 21 19 19 17 15 15 15 16 17
38 34 30 26 23 20 15 11 9 8 7 7 7 6 6 5 5 6 7 6 8 9 10 11 14 17 18 19 20 22 22 24 22 22 20 19 20 19 17 16 17 16 17
39 35 30 25 23 19 15 12 10 8 8 8 8 7 7 7 7 6 6 7 8 9 11 13 14 16 16 20 21 22 22 21 21 20 19 20 21 20 19 20 20 18 20
Wind_Direction
205 209 208 209 209 210 210 210 201 193 195 189 184 185 189 188 187 184 265 248 252 289 319 335 338 336 339 349 355 352 350 348 348 343 342 337 322 323 331 327 320 321 317
207 205 209 210 214 216 213 211 207 207 200 197 192 199 198 201 204 224 280 273 279 280 305 320 323 330 335 344 346 347 350 350 348 351 346 332 329 286 325 318 325 320 319
208 207 211 215 215 214 216 215 212 211 206 196 195 196 202 207 213 228 248 279 286 275 305 317 319 323 330 339 344 344 344 347 350 351 356 336 315 326 319 310 314 320 327
214 216 213 217 219 219 215 215 215 212 208 204 204 205 210 213 219 243 265 271 272 278 307 316 318 321 328 335 339 341 341 342 342 343 343 336 327 326 318 306 314 318 320
217 219 220 223 220 218 216 215 215 214 212 210 209 206 214 234 244 246 256 265 264 283 304 309 315 320 325 330 334 339 339 336 340 340 333 328 322 317 313 312 310 307 309
221 225 227 223 221 218 216 215 213 215 215 212 210 212 223 232 239 243 255 253 258 284 292 301 306 315 320 323 329 329 328 330 325 318 311 307 304 300 301 302 303 310 296
228 227 228 225 221 217 216 215 214 215 216 210 209 214 228 230 235 257 266 249 272 271 272 286 295 303 319 324 324 324 325 322 317 313 310 309 308 307 304 304 308 314 316
211 221 226 225 224 219 216 214 217 215 212 208 211 217 223 231 245 252 241 237 253 257 262 270 288 308 320 321 321 323 322 320 317 314 312 311 309 309 313 311 310 314 312
166 207 222 228 228 222 216 215 217 215 210 208 214 220 224 236 239 229 224 241 243 242 243 279 303 309 311 314 318 318 318 319 318 318 319 317 314 311 309 305 299 298 297
124 159 200 219 227 226 217 214 214 216 211 212 216 220 220 218 212 215 220 216 221 233 282 299 300 304 314 319 321 323 325 325 327 328 327 329 328 324 321 322 312 302 304
129 143 167 195 216 216 216 212 211 212 212 212 214 218 211 201 199 201 203 212 253 287 297 301 312 319 323 325 328 332 336 337 337 337 339 338 331 328 320 318 318 311 298
143 160 187 198 199 202 206 208 206 204 205 204 203 192 185 185 193 204 222 266 313 304 312 317 322 326 328 333 338 340 340 341 341 340 337 333 329 329 325 322 318 308 304
136 142 158 166 172 178 188 191 191 190 185 187 184 179 176 182 190 224 311 321 312 315 318 322 324 329 338 342 342 341 340 339 339 334 331 327 322 319 315 312 310 309 307
143 144 150 151 156 160 164 166 165 167 167 171 172 171 173 192 242 306 310 308 313 317 321 328 338 344 343 339 338 337 336 337 334 333 332 326 314 319 313 317 315 312 310
147 148 149 148 150 150 149 149 150 155 161 166 169 174 193 243 298 304 309 318 319 325 335 341 342 342 338 338 337 337 337 337 340 340 335 330 318 295 310 318 320 319 321
154 151 147 145 146 147 147 148 149 153 162 168 172 174 194 281 307 317 320 321 327 336 342 344 345 340 336 334 334 339 342 346 342 342 341 333 323 319 317 311 316 324 329
165 160 157 155 154 154 156 156 156 159 165 168 162 166 314 315 313 321 323 328 339 346 348 346 341 336 333 333 342 349 349 346 345 345 342 339 337 335 333 338 331 328 328
171 169 166 162 160 160 160 161 161 162 163 160 167 260 301 314 320 323 336 347 350 350 348 344 338 337 343 343 344 347 346 346 347 350 350 348 350 344 352 333 325 326 325
177 173 170 168 165 167 167 169 165 167 169 175 212 289 317 320 324 341 354 360 354 350 345 343 338 341 342 338 340 340 344 345 351 354 349 342 343 343 340 322 322 325 324
177 173 170 170 170 168 172 175 172 174 176 186 272 310 322 325 336 356 4 1 351 349 352 346 343 343 341 344 343 340 345 346 351 351 349 344 339 341 326 325 326 327 318
177 175 174 174 174 174 177 182 181 186 190 249 293 308 316 322 346 360 4 352 346 355 3 2 356 354 352 350 349 349 353 351 347 345 344 338 337 331 326 328 327 321 320
175 178 175 174 176 180 183 188 189 195 233 268 285 295 305 321 336 348 346 343 343 351 360 1 358 358 352 348 351 354 357 350 341 341 339 336 330 327 326 323 323 323 324
178 180 181 178 178 183 194 201 200 217 245 265 270 267 283 290 295 313 320 329 330 342 348 346 346 351 347 345 346 353 352 345 340 338 335 329 327 327 327 326 329 328 328
182 182 184 183 182 187 195 207 215 225 244 253 247 255 266 251 260 288 307 309 312 324 331 333 330 339 339 335 344 348 340 338 338 338 334 330 329 333 334 334 338 340 343
184 186 188 188 189 190 197 209 220 236 247 242 244 256 250 246 254 279 295 293 301 310 317 322 323 327 329 339 345 335 335 336 335 334 330 331 337 341 343 348 348 349 352
185 186 190 192 192 193 202 211 219 234 246 243 249 251 245 251 262 276 274 287 300 306 307 317 320 321 325 331 331 328 330 332 334 334 335 341 342 344 345 347 348 351 350
Height
1552 1556 1560 1562 1565 1568 1569 1571 1572 1574 1575 1577 1580 1582 1584 1587 1588 1590 1590 1591 1591 1592 1591 1591 1590 1588 1586 1584 1582 1580 1578 1576 1574 1572 1571 1569 1566 1563 1559 1557 1555 1553 1550
1549 1553 1555 1558 1561 1564 1567 1570 1571 1573 1575 1577 1579 1582 1584 1586 1588 1589 1590 1591 1592 1591 1591 1591 1590 1588 1585 1583 1581 1579 1577 1574 1571 1570 1567 1565 1564 1562 1559 1555 1552 1550 1548
1543 1548 1551 1553 1559 1561 1564 1567 1570 1573 1575 1577 1578 1580 1583 1585 1587 1588 1590 1591 1591 1591 1591 1590 1589 1587 1584 1582 1580 1578 1576 1573 1570 1569 1569 1564 1561 1556 1556 1554 1551 1548 1545
1541 1544 1547 1549 1552 1557 1563 1567 1570 1572 1575 1576 1578 1579 1581 1583 1586 1588 1589 1590 1590 1590 1590 1589 1587 1585 1583 1580 1578 1576 1574 1571 1569 1568 1566 1565 1562 1557 1550 1549 1549 1546 1543
1535 1538 1541 1544 1549 1555 1560 1565 1569 1571 1573 1575 1577 1579 1581 1583 1586 1587 1589 1589 1589 1588 1588 1587 1586 1584 1581 1578 1576 1574 1572 1569 1567 1565 1563 1560 1558 1556 1551 1543 1543 1543 1540
1533 1536 1540 1543 1547 1552 1558 1563 1566 1569 1572 1574 1576 1579 1581 1583 1584 1586 1587 1587 1587 1587 1586 1585 1583 1581 1578 1576 1574 1572 1569 1567 1565 1563 1561 1557 1553 1551 1548 1542 1539 1537 1536
1530 1531 1533 1537 1542 1548 1554 1560 1564 1567 1570 1573 1576 1578 1581 1582 1584 1585 1585 1586 1586 1585 1584 1583 1580 1578 1576 1574 1572 1570 1567 1564 1562 1560 1558 1555 1551 1548 1544 1540 1536 1533 1530
1524 1527 1530 1535 1540 1546 1552 1558 1561 1565 1570 1573 1576 1578 1580 1581 1583 1584 1584 1585 1585 1584 1581 1578 1577 1577 1575 1573 1571 1568 1565 1562 1560 1557 1554 1551 1548 1545 1542 1538 1534 1529 1529
1524 1527 1531 1535 1539 1543 1550 1555 1559 1564 1569 1572 1574 1576 1579 1580 1582 1582 1583 1583 1581 1579 1577 1577 1578 1574 1573 1571 1568 1565 1562 1559 1556 1553 1550 1546 1543 1540 1536 1533 1531 1528 1524
1527 1529 1531 1534 1537 1542 1548 1553 1558 1563 1567 1570 1572 1574 1576 1578 1578 1579 1579 1578 1578 1578 1578 1576 1574 1573 1570 1567 1564 1561 1558 1555 1552 1548 1545 1541 1538 1534 1531 1529 1527 1525 1522
1530 1531 1533 1534 1536 1540 1544 1549 1555 1560 1564 1567 1570 1572 1574 1576 1576 1576 1577 1578 1578 1577 1577 1575 1573 1570 1567 1563 1560 1557 1554 1551 1548 1545 1541 1538 1535 1532 1529 1527 1525 1522 1520
1531 1532 1533 1534 1535 1537 1541 1546 1552 1557 1561 1565 1568 1571 1573 1575 1576 1576 1576 1576 1575 1575 1574 1571 1569 1566 1563 1560 1557 1554 1552 1549 1545 1542 1539 1535 1532 1529 1527 1524 1522 1520 1517
1532 1532 1534 1534 1534 1537 1540 1545 1550 1555 1559 1564 1568 1570 1572 1574 1574 1575 1574 1574 1573 1572 1570 1568 1565 1562 1560 1557 1555 1553 1550 1547 1544 1540 1536 1533 1529 1526 1524 1521 1519 1516 1514
1533 1533 1534 1535 1537 1539 1542 1546 1551 1555 1560 1564 1568 1570 1572 1573 1574 1574 1574 1573 1571 1569 1567 1564 1562 1561 1559 1556 1554 1551 1548 1545 1540 1536 1533 1530 1527 1524 1520 1517 1514 1511 1508
1534 1535 1536 1536 1539 1542 1546 1550 1554 1558 1562 1566 1568 1570 1572 1573 1573 1573 1572 1570 1568 1566 1564 1562 1560 1559 1557 1554 1552 1549 1545 1541 1537 1533 1529 1526 1524 1521 1518 1515 1511 1507 1503
1533 1536 1538 1539 1542 1547 1550 1554 1557 1560 1564 1566 1568 1570 1571 1572 1571 1570 1569 1567 1565 1564 1562 1561 1559 1557 1555 1552 1550 1546 1542 1538 1534 1530 1527 1523 1520 1517 1514 1511 1508 1505 1500
1533 1536 1539 1542 1546 1549 1552 1555 1558 1561 1564 1566 1568 1569 1570 1569 1569 1568 1566 1564 1563 1562 1560 1559 1557 1555 1552 1549 1546 1543 1540 1536 1532 1528 1524 1521 1517 1514 1511 1508 1505 1502 1499
1532 1537 1540 1543 1547 1551 1554 1556 1559 1561 1564 1565 1567 1568 1568 1567 1566 1565 1563 1562 1561 1560 1559 1557 1555 1553 1550 1546 1543 1540 1537 1533 1530 1526 1522 1519 1516 1513 1509 1506 1502 1498 1495
1530 1536 1541 1545 1548 1551 1554 1557 1559 1561 1563 1564 1565 1566 1566 1565 1564 1563 1562 1560 1559 1558 1557 1554 1552 1550 1548 1546 1543 1539 1536 1532 1528 1524 1521 1518 1514 1512 1508 1503 1498 1494 1490
1529 1534 1540 1544 1548 1551 1554 1556 1558 1560 1561 1562 1563 1564 1563 1562 1562 1561 1561 1560 1559 1557 1555 1553 1551 1549 1547 1545 1542 1538 1533 1530 1526 1523 1519 1516 1513 1509 1506 1501 1495 1491 1486
1528 1534 1539 1542 1547 1550 1553 1556 1558 1560 1560 1561 1561 1561 1561 1561 1560 1560 1559 1559 1558 1556 1554 1552 1551 1548 1546 1543 1540 1536 1532 1528 1524 1520 1516 1513 1509 1506 1502 1498 1493 1489 1483
1527 1533 1537 1541 1546 1549 1552 1555 1557 1558 1559 1560 1560 1560 1559 1559 1559 1558 1558 1557 1557 1556 1554 1552 1550 1548 1545 1542 1538 1534 1531 1527 1523 1518 1514 1510 1506 1502 1499 1494 1490 1486 1482
1525 1531 1536 1540 1545 1548 1552 1553 1554 1556 1557 1558 1558 1558 1557 1557 1557 1557 1556 1555 1555 1554 1553 1551 1548 1546 1543 1540 1536 1532 1528 1525 1520 1516 1512 1508 1504 1500 1496 1491 1487 1483 1479
1523 1529 1534 1538 1542 1546 1549 1552 1553 1554 1555 1556 1556 1556 1555 1555 1555 1555 1554 1553 1552 1551 1550 1549 1546 1543 1541 1537 1533 1529 1526 1522 1518 1513 1509 1505 1501 1497 1493 1489 1485 1480 1476
1521 1527 1532 1537 1541 1544 1547 1550 1552 1553 1553 1554 1554 1553 1554 1553 1552 1551 1552 1551 1550 1549 1548 1546 1544 1541 1538 1535 1532 1528 1523 1520 1515 1510 1506 1502 1498 1494 1490 1486 1482 1478 1474
1518 1524 1530 1535 1538 1542 1545 1548 1549 1551 1552 1552 1552 1552 1552 1552 1550 1549 1549 1548 1548 1546 1544 1543 1541 1539 1536 1534 1530 1525 1521 1517 1512 1508 1503 1499 1495 1491 1486 1483 1479 1476 1472